Regional Weather Roundup
Issued by NWS Cleveland, OH

Home | Current Version | Previous Version | Graphics & Text | Print | Product List | Glossary On
Versions: 1 2 3 4 5 6 7 8 9 10 11 12 13 14 15 16 17 18 19 20 21 22 23 24 25 26 27 28 29 30 31 32 33 34 35 36 37 38 39 40 41 42 43 44 45 46 47 48 49 50
789
ASUS41 KCLE 180410
RWRCLE
OHIO REGIONAL WEATHER ROUNDUP
NATIONAL WEATHER SERVICE CLEVELAND, OH
1100 PM EST FRI NOV 17 2017

NOTE: "FAIR" INDICATES FEW OR NO CLOUDS BELOW 12,000 FEET WITH NO
SIGNIFICANT WEATHER AND/OR OBSTRUCTIONS TO VISIBILITY.

OHZ001>008-015>018-024>027-034-035-043-044-180500-
   NORTHWEST OHIO

CITY           SKY/WX    TMP DP  RH WIND       PRES   REMARKS
DEFIANCE       CLOUDY    46  32  58 S14G22    29.69F
FINDLAY        CLOUDY    46  30  53 S20G29    29.73F
TOLEDO EXPRESS CLOUDY    46  33  60 S12G22    29.70F
TOLEDO EXEC    CLOUDY    45  32  60 S16G23    29.73F
LIMA           CLOUDY    45  33  63 S22G28    29.71F
$$

OHZ009>014-019>023-028>033-038-089-180500-
   NORTHEAST OHIO

CITY           SKY/WX    TMP DP  RH WIND       PRES   REMARKS
CLE-HOPKINS    CLOUDY    44  29  55 S15       29.84F
CLE-LAKEFRONT  CLOUDY    43  28  55 S21G28    29.82F
CUY CO. ARPT   MOCLDY    41  30  65 S15G24    29.85F
LORAIN-ELYRIA  CLOUDY    42  27  55 S17       29.81F
ASHTABULA      CLOUDY    37  29  72 S13       29.90F
AKRON-CANTON   CLOUDY    39  28  64 S10       29.87F
WOOSTER        CLOUDY    39  30  70 S10       29.86F
MANSFIELD      CLOUDY    43  29  57 S18G29    29.81F
YOUNGSTOWN     CLOUDY    37  27  67 SE10      29.90F
$$

OHZ042-051>053-060>062-070>072-077>081-180500-
  SOUTHWEST OHIO

CITY           SKY/WX    TMP DP  RH WIND       PRES   REMARKS
CINC-COVINGTON CLOUDY    49  35  58 S16       29.80F
CINC-LUNKEN    MOCLDY    48  35  60 S8        29.83F
HAMILTON       MOCLDY    49  33  54 VRB5      29.81F
DAYTON         MOCLDY    46  33  60 S16G23    29.77F
WRIGHT-PAT AFB CLOUDY    45  31  56 SE10      29.79F
DAYTON GENERAL CLOUDY    48  31  51 S15       29.79F
WILMINGTON     CLOUDY    46  32  58 S12       29.82F
$$

OHZ036-037-039>041-045>050-054>059-063>069-073>076-082>088-180500-
  CENTRAL AND SOUTHEAST OHIO

CITY           SKY/WX    TMP DP  RH WIND       PRES   REMARKS
COLUMBUS       CLOUDY    44  31  60 SE9       29.85F
OSU AIRPORT    PTCLDY    44  31  60 SE13      29.83F
BOLTON FIELD   MOCLDY    42  32  68 SE8       29.85F
RICKENBACK AFB MOCLDY    43  32  63 S9        29.85F
NEWARK         PTCLDY    43  29  57 S5        29.87F
MARION         CLOUDY    42  30  62 S16       29.80F
LANCASTER      MOCLDY    43  31  62 SE12      29.87F
ZANESVILLE     PTCLDY    40  29  64 S7        29.90F
NEW PHILLY     NOT AVBL
$$




USA.gov is the U.S. government's official web portal to all federal, state and local government web resources and services.